301  
NZUS93 KARX 250510  
HRRWXR  
 
CURRENT HOURLY OBSERVATIONS ACROSS  
MUCH OF THE UPPER MISSISSIPPI VALLEY  
NATIONAL WEATHER SERVICE LA CROSSE WI  
1200 AM CDT SAT MAR 25 2017  
 
   
..SOUTHEAST MINNESOTA
 
 
 
CITY SKY/WX TMP DP RH WIND PRES REMARKS  
ROCHESTER CLOUDY 37 36 96 NE14 30.11S WCI 28  
ROCHESTER/MAYO CLOUDY 38 37 93 NE7 30.12S WCI 33  
WINONA CLOUDY 39 36 87 E8 30.14S WCI 34  
AUSTIN CLOUDY 37 36 93 NE10G17 30.10R FOG WCI 30  
ALBERT LEA CLOUDY 37 36 93 NE12G17 30.11R FOG WCI 30  
DODGE CENTER CLOUDY 37 36 93 NE9 30.12R WCI 31  
PRESTON CLOUDY 37 35 94 NE10 30.10R FOG WCI 30  
OWATONNA CLOUDY 39 34 81 NE10 30.13S WCI 32  
FARIBAULT CLOUDY 37 37 100 NE8 30.14R FOG WCI 31  

 
   
..ELSEWHERE IN MINNESOTA
 
 
 
CITY SKY/WX TMP DP RH WIND PRES REMARKS  
MINNEAPOLIS CLOUDY 39 31 72 E10 30.17S WCI 32  
INTNL FALLS CLOUDY 34 27 75 E5 30.24S WCI 30  
DULUTH CLOUDY 33 32 96 E14 30.22R WCI 23  
RED WING CLOUDY 39 32 75 E7 30.15F WCI 34  
REDWOOD FALLS CLOUDY 38 32 79 E7 30.16F WCI 33  
MANKATO CLOUDY 39 35 86 NE12 30.14S WCI 32  
WORTHINGTON CLOUDY 35 34 96 NE17 30.12S FOG WCI 25  
FAIRMONT CLOUDY 39 36 89 NE10 30.13R WCI 32  

 
   
..SOUTHWEST WISCONSIN
 
 
 
CITY SKY/WX TMP DP RH WIND PRES REMARKS  
LA CROSSE LGT RAIN 40 38 93 VRB3 30.13F  
PRAIRIE DU CHI CLOUDY 38 37 97 E8 30.09S WCI 32  
BOSCOBEL CLOUDY 39 38 96 NE8 30.10S FOG WCI 33  
LONE ROCK LGT RAIN 38 35 89 E13 30.11S FOG WCI 30  
PLATTEVILLE CLOUDY 39 39 100 NE15 30.06F WCI 31  
FORT MC COY LGT RAIN 37 37 97 NE7 30.15S WCI 32  
CAMP DOUGLAS LGT RAIN 37 36 98 E6 30.14S WCI 32  
MAUSTON-NEW LI RAIN 37 36 96 CALM 30.14S  
VIROQUA CLOUDY 37 36 98 E17 30.10S WCI 27  
WIS DELLS DRIZZLE 36 34 95 E10G17 30.12S WCI 28  

 
   
..ELSEWHERE IN WISCONSIN
 
 
 
CITY SKY/WX TMP DP RH WIND PRES REMARKS  
MILWAUKEE LGT RAIN 38 34 85 N15G25 30.10F WCI 29  
MADISON CLOUDY 37 34 89 MISG 30.12R  
GREEN BAY LGT RAIN 36 35 96 NE17 30.19R WCI 26  
EAU CLAIRE CLOUDY 38 33 82 NE13 30.16R WCI 30  
BLACK RVR FLS LGT RAIN 38 38 100 NE6 30.15S WCI 34  
MEDFORD CLOUDY 34 32 92 E10 30.15R WCI 26  
WAUSAU CLOUDY 35 32 88 NE7 30.16R WCI 29  
WIS RAPIDS LGT RAIN 37 36 96 E9 30.17R WCI 30  
MARSHFIELD CLOUDY 36 32 85 NE10 30.14R WCI 28  
RICE LAKE CLOUDY 36 32 84 CALM 30.20R  

 
   
..NORTHEAST IOWA
 
 
 
CITY SKY/WX TMP DP RH WIND PRES REMARKS  
WATERLOO CLOUDY 41 38 89 NE13 30.04R  
DUBUQUE CLOUDY 40 39 97 NE16 30.04S FOG WCI 31  
DECORAH CLOUDY 39 37 93 NE13 30.08R WCI 32  
MASON CITY CLOUDY 39 37 92 NE15 30.09R WCI 31  
CHARLES CITY MIX PCPN 39 39 100 NE15G21 30.08R WCI 31  
OELWEIN CLOUDY 39 39 100 NE18G25 30.03S WCI 30  

 
   
..ELSEWHERE IN IOWA
 
 
 
CITY SKY/WX TMP DP RH WIND PRES REMARKS  
DES MOINES CLOUDY 44 42 93 NE14 29.97S  
IOWA CITY LGT RAIN 52 49 89 NE14 29.99S  
FORT DODGE CLOUDY 39 36 87 NE14G20 30.04F WCI 31  
MARSHALLTOWN CLOUDY 42 40 92 NE17 29.99F  
CEDAR RAPIDS LGT RAIN 45 45 100 NE15 29.98F FOG  

 
   
..NORTHERN ILLINOIS
 
 
 
CITY SKY/WX TMP DP RH WIND PRES REMARKS  
CHICAGO-OHARE CLOUDY 43 36 76 NE14 30.04F  
CHICAGO-MIDWAY CLOUDY 42 38 85 NE9G23 30.05F  
MOLINE CLOUDY 56 54 93 E10 29.98R FOG  
ROCKFORD LGT RAIN 41 38 89 NE13 30.08R  
PEORIA CLOUDY 60 53 77 NE6 29.99F  

 
 
NOTE: "FAIR" INDICATES FEW OR NO CLOUDS BELOW 12,000 FEET WITH NO  
SIGNIFICANT WEATHER AND/OR OBSTRUCTIONS TO VISIBILITY. WIND  
SPEEDS ARE IN MILES-PER-HOUR.  
 
 
CLICK HERE TO GO TO PREVIOUS BULLETINS.

The Nexlab WI Page
The Nexlab IA Page
The Nexlab MN Page Main Text Page